N882IS KORE-KAQW

Flight info

Callsign N882IS
Flight time 0h 27m
Altitude 4500
Route DCT 423557N0722356W 423623N0724355W 424227N0730548W DCT
Aircraft C172/L-SBDGR/C

Departure

Time 2026-04-28 18:41
Airport Orange Municipal Airport (KORE)

Arrival

Time 2026-04-28 19:09
Airport Harriman and West Airport (KAQW)
Time Latitude Longitude Altitude Speed Heading
2026-04-28 18:28 42.57317 -72.28515 536 ft 0 kts 127°
2026-04-28 18:35 42.57299 -72.28513 536 ft 2 kts 238°
2026-04-28 18:36 42.57325 -72.28580 536 ft 15 kts 307°
2026-04-28 18:36 42.57401 -72.28715 534 ft 17 kts 304°
2026-04-28 18:36 42.57459 -72.28820 533 ft 11 kts 307°
2026-04-28 18:36 42.57491 -72.28890 532 ft 0 kts 277°
2026-04-28 18:37 42.57492 -72.28912 532 ft 6 kts 272°
2026-04-28 18:37 42.57487 -72.28998 533 ft 9 kts 237°
2026-04-28 18:37 42.57429 -72.29012 534 ft 9 kts 180°
2026-04-28 18:37 42.57417 -72.29063 534 ft 10 kts 309°
2026-04-28 18:38 42.57446 -72.29118 533 ft 0 kts 310°
2026-04-28 18:38 42.57477 -72.29175 532 ft 21 kts 307°
2026-04-28 18:38 42.57565 -72.29330 531 ft 6 kts 305°
2026-04-28 18:39 42.57582 -72.29349 531 ft 12 kts 278°
2026-04-28 18:39 42.57563 -72.29324 531 ft 6 kts 126°
2026-04-28 18:39 42.57561 -72.29321 531 ft 0 kts 127°
2026-04-28 18:40 42.57542 -72.29289 532 ft 16 kts 124°
2026-04-28 18:40 42.57391 -72.29015 535 ft 58 kts 125°
2026-04-28 18:40 42.57119 -72.28527 657 ft 67 kts 118°
2026-04-28 18:41 42.56818 -72.28045 845 ft 65 kts 133°
2026-04-28 18:41 42.56537 -72.27583 1024 ft 63 kts 130°
2026-04-28 18:41 42.56252 -72.27091 1171 ft 69 kts 129°
2026-04-28 18:41 42.55913 -72.26605 1292 ft 74 kts 127°
2026-04-28 18:42 42.55761 -72.25967 1399 ft 78 kts 86°
2026-04-28 18:42 42.56037 -72.25342 1513 ft 79 kts 47°
2026-04-28 18:42 42.56466 -72.24899 1636 ft 77 kts 31°
2026-04-28 18:42 42.56998 -72.24918 1721 ft 77 kts 341°
2026-04-28 18:43 42.57453 -72.25388 1843 ft 88 kts 323°
2026-04-28 18:43 42.57883 -72.26037 1978 ft 97 kts 307°
2026-04-28 18:43 42.58315 -72.26839 1995 ft 114 kts 307°
2026-04-28 18:43 42.58802 -72.27760 1979 ft 125 kts 304°
2026-04-28 18:44 42.59337 -72.28723 1978 ft 129 kts 304°
2026-04-28 18:44 42.59954 -72.30914 2048 ft 120 kts 256°
2026-04-28 18:44 42.59681 -72.31925 2252 ft 109 kts 243°
2026-04-28 18:45 42.59410 -72.32858 2420 ft 105 kts 247°
2026-04-28 18:45 42.59244 -72.33832 2563 ft 107 kts 266°
2026-04-28 18:45 42.59360 -72.34833 2712 ft 108 kts 284°
2026-04-28 18:45 42.59557 -72.35806 2850 ft 108 kts 281°
2026-04-28 18:46 42.59727 -72.36802 2997 ft 108 kts 281°
2026-04-28 18:46 42.59895 -72.37799 3151 ft 107 kts 277°
2026-04-28 18:46 42.59982 -72.38793 3331 ft 104 kts 273°
2026-04-28 18:46 42.60059 -72.39758 3498 ft 103 kts 272°
2026-04-28 18:47 42.60085 -72.40715 3666 ft 101 kts 268°
2026-04-28 18:47 42.60062 -72.41653 3838 ft 99 kts 263°
2026-04-28 18:47 42.60036 -72.42584 4008 ft 98 kts 269°
2026-04-28 18:47 42.60053 -72.43518 4178 ft 98 kts 269°
2026-04-28 18:48 42.60058 -72.44429 4351 ft 96 kts 269°
2026-04-28 18:48 42.60094 -72.45334 4532 ft 95 kts 265°
2026-04-28 18:48 42.60120 -72.46294 4561 ft 111 kts 272°
2026-04-28 18:48 42.60255 -72.47403 4538 ft 123 kts 284°
2026-04-28 18:49 42.60535 -72.48493 4517 ft 123 kts 290°
2026-04-28 18:49 42.60659 -72.48847 4519 ft 123 kts 297°
2026-04-28 18:49 42.61173 -72.50611 4525 ft 119 kts 281°
2026-04-28 18:49 42.61322 -72.51712 4523 ft 119 kts 277°
2026-04-28 18:50 42.61392 -72.52830 4521 ft 118 kts 268°
2026-04-28 18:50 42.61350 -72.53945 4509 ft 118 kts 262°
2026-04-28 18:50 42.61254 -72.55053 4510 ft 117 kts 257°
2026-04-28 18:50 42.61103 -72.56126 4511 ft 116 kts 256°
2026-04-28 18:51 42.60948 -72.57210 4510 ft 117 kts 259°
2026-04-28 18:51 42.60906 -72.58317 4513 ft 117 kts 259°
2026-04-28 18:51 42.60784 -72.59413 4513 ft 117 kts 258°
2026-04-28 18:51 42.60746 -72.60520 4512 ft 119 kts 275°
2026-04-28 18:52 42.60933 -72.61614 4510 ft 119 kts 288°
2026-04-28 18:52 42.61205 -72.62688 4508 ft 119 kts 284°
2026-04-28 18:52 42.61511 -72.63729 4509 ft 120 kts 297°
2026-04-28 18:52 42.61994 -72.64655 4511 ft 119 kts 303°
2026-04-28 18:53 42.62408 -72.65630 4508 ft 119 kts 289°
2026-04-28 18:53 42.62664 -72.66691 4509 ft 117 kts 278°
2026-04-28 18:53 42.62828 -72.67784 4510 ft 117 kts 278°
2026-04-28 18:53 42.63001 -72.68862 4509 ft 117 kts 278°
2026-04-28 18:54 42.63065 -72.69938 4511 ft 115 kts 265°
2026-04-28 18:54 42.63073 -72.70932 4510 ft 115 kts 265°
2026-04-28 18:54 42.63066 -72.72022 4509 ft 114 kts 256°
2026-04-28 18:54 42.62685 -72.72909 4512 ft 109 kts 219°
2026-04-28 18:55 42.62079 -72.73523 4510 ft 108 kts 210°
2026-04-28 18:55 42.61653 -72.73904 4509 ft 108 kts 207°
2026-04-28 18:55 42.60709 -72.74040 4510 ft 103 kts 162°
2026-04-28 18:55 42.60181 -72.73428 4510 ft 102 kts 116°
2026-04-28 18:56 42.60139 -72.72468 4507 ft 106 kts 73°
2026-04-28 18:56 42.60591 -72.71672 4507 ft 112 kts 37°
2026-04-28 18:56 42.61373 -72.71479 4508 ft 118 kts 351°
2026-04-28 18:56 42.62074 -72.72064 4516 ft 122 kts 306°
2026-04-28 18:57 42.62355 -72.73147 4518 ft 125 kts 274°
2026-04-28 18:57 42.62423 -72.74329 4511 ft 127 kts 267°
2026-04-28 18:57 42.62447 -72.75545 4511 ft 128 kts 268°
2026-04-28 18:57 42.62468 -72.76755 4511 ft 129 kts 268°
2026-04-28 18:58 42.62481 -72.77968 4510 ft 128 kts 266°
2026-04-28 18:58 42.62500 -72.79192 4510 ft 129 kts 267°
2026-04-28 18:58 42.62537 -72.80406 4507 ft 130 kts 274°
2026-04-28 18:58 42.62870 -72.81557 4508 ft 132 kts 293°
2026-04-28 18:59 42.63281 -72.82683 4506 ft 132 kts 293°
2026-04-28 18:59 42.63638 -72.83823 4503 ft 131 kts 289°
2026-04-28 18:59 42.63985 -72.84974 4503 ft 131 kts 289°
2026-04-28 18:59 42.64332 -72.86118 4501 ft 131 kts 288°
2026-04-28 19:00 42.64594 -72.87309 4502 ft 130 kts 281°
2026-04-28 19:00 42.64819 -72.88495 4502 ft 129 kts 280°
2026-04-28 19:00 42.65098 -72.89656 4495 ft 130 kts 289°
2026-04-28 19:00 42.65486 -72.90762 4488 ft 130 kts 293°
2026-04-28 19:01 42.65863 -72.91886 4359 ft 131 kts 285°
2026-04-28 19:01 42.66153 -72.93058 4219 ft 131 kts 288°
2026-04-28 19:01 42.66494 -72.94212 4106 ft 131 kts 289°
2026-04-28 19:01 42.66862 -72.95348 4022 ft 129 kts 289°
2026-04-28 19:02 42.67138 -72.96485 4032 ft 126 kts 284°
2026-04-28 19:02 42.67479 -72.97593 4040 ft 128 kts 292°
2026-04-28 19:02 42.67875 -72.98677 4051 ft 127 kts 290°
2026-04-28 19:02 42.68198 -72.99796 4067 ft 129 kts 287°
2026-04-28 19:03 42.68567 -73.00925 4029 ft 130 kts 291°
2026-04-28 19:03 42.68943 -73.02040 3942 ft 127 kts 290°
2026-04-28 19:03 42.69305 -73.03107 3785 ft 123 kts 290°
2026-04-28 19:03 42.69649 -73.04161 3599 ft 123 kts 287°
2026-04-28 19:04 42.69890 -73.05274 3373 ft 125 kts 279°
2026-04-28 19:04 42.70082 -73.06428 3138 ft 127 kts 281°
2026-04-28 19:04 42.70319 -73.07586 2864 ft 127 kts 282°
2026-04-28 19:04 42.70645 -73.08711 2607 ft 129 kts 287°
2026-04-28 19:05 42.70843 -73.09888 2372 ft 128 kts 272°
2026-04-28 19:05 42.70926 -73.11087 2136 ft 128 kts 268°
2026-04-28 19:05 42.70996 -73.12265 2182 ft 125 kts 269°
2026-04-28 19:05 42.71076 -73.13455 2209 ft 130 kts 268°
2026-04-28 19:06 42.71185 -73.14694 2185 ft 133 kts 272°
2026-04-28 19:06 42.71268 -73.15524 2180 ft 132 kts 272°
2026-04-28 19:06 42.71433 -73.17132 2014 ft 126 kts 272°
2026-04-28 19:06 42.71577 -73.18310 1833 ft 124 kts 274°
2026-04-28 19:07 42.71679 -73.19448 1688 ft 118 kts 260°
2026-04-28 19:07 42.71378 -73.20355 1596 ft 90 kts 207°
2026-04-28 19:07 42.70867 -73.20616 1559 ft 73 kts 182°
2026-04-28 19:07 42.70428 -73.20443 1470 ft 68 kts 141°
2026-04-28 19:08 42.70147 -73.19907 1318 ft 73 kts 122°
2026-04-28 19:08 42.69921 -73.19273 1150 ft 74 kts 112°
2026-04-28 19:08 42.69787 -73.18608 962 ft 69 kts 106°
2026-04-28 19:08 42.69714 -73.18014 743 ft 64 kts 104°
2026-04-28 19:09 42.69664 -73.17464 655 ft 49 kts 99°
2026-04-28 19:09 42.69632 -73.17114 653 ft 30 kts 98°
2026-04-28 19:09 42.69609 -73.16851 651 ft 27 kts 96°
2026-04-28 19:09 42.69614 -73.16706 652 ft 7 kts 30°
2026-04-28 19:10 42.69625 -73.16702 652 ft 1 kts
2026-04-28 19:10 42.69657 -73.16678 651 ft 9 kts 83°
2026-04-28 19:10 42.69673 -73.16600 652 ft 8 kts
2026-04-28 19:10 42.69677 -73.16599 652 ft 0 kts